Regional Weather Roundup
Issued by NWS

Home | Current Version | Previous Version | Graphics & Text | Print | Product List | Glossary On
Versions: 1 2 3 4 5 6 7 8 9 10 11 12 13 14 15 16 17 18 19 20 21 22 23 24 25 26 27 28 29 30 31 32 33 34 35 36 37 38 39 40 41 42 43 44 45 46 47 48 49 50
000
ASUS43 KIND 290709
RWRIN

WEATHER ROUNDUP FOR INDIANA
NATIONAL WEATHER SERVICE INDIANAPOLIS IN
200 AM EST SAT NOV 29 2014

NOTE: "FAIR" INDICATES FEW OR NO CLOUDS BELOW 12,000 FEET WITH NO
SIGNIFICANT WEATHER AND/OR OBSTRUCTIONS TO VISIBILITY.

* - STATION DOES NOT REPORT WEATHER SUCH AS PRECIPITATION OR FOG.

+ - STATION NOT QUALITY CONTROLLED BY THE NATIONAL WEATHER SERVICE.
    USE DATA WITH CAUTION...ESPECIALLY DEWPOINT AND RELATIVE
    HUMIDITY OBSERVATIONS.

INZ001>003-010>013-019-020-290800-
NORTHWEST INDIANA

CITY           SKY/WX    TMP DP  RH WIND       PRES   REMARKS
GARY /AIRPORT/ PTCLDY    33  26  76 SE9       29.90S WCI  25
KNOX *+        PTCLDY    31  25  78 SE10      29.93F WCI  22
LA PORTE +     PTCLDY    33  27  76 S6        29.93F WCI  28
MICHIGAN CITY+ PTCLDY    32  23  69 S10G17    29.92F WCI  24
MONTICELLO +   CLEAR     32  26  77 SE5       29.93S WCI  27
RENSSELAER +   CLEAR     32  30  93 S10       29.91F WCI  24
VALPARAISO     PTCLDY    30  24  78 SE7       29.91F WCI  23

$$

LMZ046-743>745-290800-
SOUTHERN LAKE MICHIGAN

STATION/POSITION TIME  TEMP WIND        PRES
                       AIR  DIR/SP/G
                 (UTC) (F)  (DEG/KT/KT) (MB)
MICHIGAN CITY    0700   35  140/ 12/ 17   N/A

$$

INZ004-005-014>016-021>024-290800-
NORTH CENTRAL INDIANA

CITY           SKY/WX    TMP DP  RH WIND       PRES   REMARKS
GOSHEN         CLOUDY    33  24  69 S12       29.95S WCI  24
LOGANSPORT +   PTCLDY    32  23  69 S9        29.95F WCI  24
PERU/GRISSOM   CLOUDY    32  27  80 S9        29.95F WCI  25
ROCHESTER +    PTCLDY    34  28  80 SE6       29.96F WCI  29
SOUTH BEND     PTCLDY    33  25  72 S10       29.94F WCI  25
WARSAW +       CLOUDY    32  23  69 S6        29.96F WCI  26

$$

INZ006>009-017-018-025>027-290800-
NORTHEAST INDIANA

CITY           SKY/WX    TMP DP  RH WIND       PRES   REMARKS
ANGOLA *+      PTCLDY    28  16  59 VRB5      29.98R WCI  23
AUBURN +       CLOUDY    32  21  64 CALM      30.00R
FORT WAYNE     CLOUDY    31  22  69 S7        30.00F WCI  24
HUNTINGTON +   MOCLDY    32  22  68 CALM      29.98R

$$

INZ028-029-035-036-043>045-051>053-290800-
WEST CENTRAL INDIANA

CITY           SKY/WX    TMP DP  RH WIND       PRES   REMARKS
GREENCASTLE +  CLEAR     36  27  69 S7        29.96F
LAFAYETTE      CLEAR     31  25  78 S6        29.94F WCI  25
TERRE HAUTE    CLEAR     34  25  69 S8        29.96F WCI  27

$$

INZ030>032-037>040-046>048-054>057-064-065-290800-
CENTRAL INDIANA

CITY           SKY/WX    TMP DP  RH WIND       PRES   REMARKS
CP ATTERBURY + CLOUDY    34  23  64 S6        30.01F WCI  29
FRANKFORT +    PTCLDY    31  26  81 SE6       29.95F WCI  25
GREENWOOD *+   PTCLDY    32  21  64 SE6       30.00S WCI  26
INDIANAPOLIS   MOCLDY    31  23  72 SE7       29.98S WCI  24
-EAGLE CREEK   PTCLDY    32  22  66 S6        29.98S WCI  26
KOKOMO *+      PTCLDY    30  23  74 S12       29.96S WCI  21
MARION +         N/A     31  22  67 S10       29.98S WCI  23
MT COMFORT *+  PTCLDY    32  16  51 S9        30.00R WCI  24
SHELBYVILLE    MOCLDY    35  23  61 S8        30.00F WCI  29
ZIONSVILLE +   CLEAR     32  22  67 S8        29.97F WCI  25

$$

INZ033-034-041-042-049-050-058-059-290800-
EAST CENTRAL INDIANA

CITY           SKY/WX    TMP DP  RH WIND       PRES   REMARKS
MUNCIE         PTCLDY    34  20  56 S15       29.98F WCI  24

$$

INZ060-061-067>069-081>083-085>088-290800-
SOUTHWEST INDIANA

CITY           SKY/WX    TMP DP  RH WIND       PRES   REMARKS
EVANSVILLE     MOCLDY    42  27  55 S10       30.02F
HUNTINGBURG *+ PTCLDY    39  27  60 S10       30.03F
WASHINGTON +   PTCLDY    35  29  77 SE3       29.99F

$$

INZ062-063-066-070>080-084-089>092-290800-
SOUTH CENTRAL AND SOUTHEAST INDIANA

CITY           SKY/WX    TMP DP  RH WIND       PRES   REMARKS
BLOOMINGTON    PTCLDY    32  24  72 SE7       29.99F WCI  26
SEYMOUR +      CLOUDY    34  23  64 SE7       30.03  WCI  28

$$



USA.gov is the U.S. government's official web portal to all federal, state and local government web resources and services.